JST521 YBWW-YBBN

Flight info

Callsign JST521
Flight time 0h 23m
Altitude 11000
Route BIVAT Y241 WOODY Y79 BN
Aircraft A320/M-SDE3FGHIRWY/LB1

Departure

Time 2026-04-28 00:34
Airport Toowoomba Wellcamp Airport (YBWW)

Arrival

Time 2026-04-28 00:58
Airport Brisbane International Airport (YBBN)
Time Latitude Longitude Altitude Speed Heading
2026-04-28 00:13 -27.56387 151.79706 1465 ft 0 kts 262°
2026-04-28 00:23 -27.56387 151.79707 1465 ft 0 kts 262°
2026-04-28 00:23 -27.56385 151.79724 1462 ft 2 kts 262°
2026-04-28 00:24 -27.56382 151.79742 1465 ft 2 kts 262°
2026-04-28 00:24 -27.56382 151.79759 1462 ft 0 kts 320°
2026-04-28 00:28 -27.56375 151.79754 1457 ft 3 kts 326°
2026-04-28 00:28 -27.56337 151.79762 1465 ft 8 kts 37°
2026-04-28 00:29 -27.56289 151.79812 1465 ft 11 kts 42°
2026-04-28 00:29 -27.56235 151.79832 1464 ft 8 kts 332°
2026-04-28 00:29 -27.56182 151.79774 1464 ft 13 kts 313°
2026-04-28 00:29 -27.56109 151.79686 1463 ft 17 kts 312°
2026-04-28 00:30 -27.56017 151.79573 1464 ft 21 kts 313°
2026-04-28 00:30 -27.55915 151.79448 1463 ft 22 kts 313°
2026-04-28 00:30 -27.55805 151.79315 1463 ft 24 kts 313°
2026-04-28 00:30 -27.55713 151.79213 1465 ft 11 kts 328°
2026-04-28 00:31 -27.55640 151.79244 1459 ft 13 kts 43°
2026-04-28 00:31 -27.55558 151.79283 1464 ft 15 kts 333°
2026-04-28 00:31 -27.55480 151.79190 1462 ft 19 kts 313°
2026-04-28 00:31 -27.55381 151.79071 1464 ft 23 kts 313°
2026-04-28 00:32 -27.55261 151.78924 1462 ft 28 kts 313°
2026-04-28 00:32 -27.55116 151.78748 1463 ft 32 kts 311°
2026-04-28 00:32 -27.54983 151.78580 1464 ft 9 kts 297°
2026-04-28 00:32 -27.54973 151.78517 1465 ft 10 kts 279°
2026-04-28 00:33 -27.54926 151.78441 1461 ft 12 kts 332°
2026-04-28 00:33 -27.54888 151.78471 1462 ft 3 kts 118°
2026-04-28 00:33 -27.54898 151.78481 1465 ft 6 kts 132°
2026-04-28 00:33 -27.55092 151.78718 1461 ft 75 kts 133°
2026-04-28 00:34 -27.55579 151.79311 1462 ft 127 kts 133°
2026-04-28 00:34 -27.56259 151.80131 1720 ft 148 kts 131°
2026-04-28 00:34 -27.56962 151.80988 2291 ft 150 kts 130°
2026-04-28 00:34 -27.57661 151.81853 2930 ft 149 kts 128°
2026-04-28 00:35 -27.58224 151.82860 3292 ft 159 kts 103°
2026-04-28 00:35 -27.58068 151.84158 3558 ft 186 kts 64°
2026-04-28 00:35 -27.57255 151.85422 3809 ft 211 kts 57°
2026-04-28 00:35 -27.56368 151.86853 4129 ft 234 kts 62°
2026-04-28 00:36 -27.55494 151.88519 4505 ft 261 kts 63°
2026-04-28 00:36 -27.54598 151.90338 5407 ft 259 kts 63°
2026-04-28 00:36 -27.53711 151.92089 6460 ft 261 kts 62°
2026-04-28 00:36 -27.52768 151.93854 7306 ft 265 kts 59°
2026-04-28 00:37 -27.51700 151.95558 8166 ft 269 kts 55°
2026-04-28 00:37 -27.50600 151.97251 9008 ft 273 kts 56°
2026-04-28 00:37 -27.49473 151.99008 9788 ft 279 kts 57°
2026-04-28 00:37 -27.48328 152.00819 10331 ft 293 kts 56°
2026-04-28 00:38 -27.47106 152.02777 10563 ft 317 kts 57°
2026-04-28 00:38 -27.45803 152.04882 10765 ft 338 kts 57°
2026-04-28 00:38 -27.44437 152.07090 11147 ft 348 kts 57°
2026-04-28 00:38 -27.43055 152.09329 11259 ft 354 kts 57°
2026-04-28 00:39 -27.41604 152.11689 11279 ft 378 kts 57°
2026-04-28 00:39 -27.40082 152.14165 11280 ft 390 kts 57°
2026-04-28 00:39 -27.38534 152.16677 11283 ft 391 kts 56°
2026-04-28 00:39 -27.36975 152.19199 11283 ft 392 kts 57°
2026-04-28 00:40 -27.35420 152.21712 11277 ft 392 kts 56°
2026-04-28 00:40 -27.33863 152.24229 11277 ft 392 kts 57°
2026-04-28 00:40 -27.32301 152.26755 11275 ft 393 kts 57°
2026-04-28 00:40 -27.30741 152.29275 11284 ft 394 kts 56°
2026-04-28 00:41 -27.29177 152.31795 11274 ft 393 kts 56°
2026-04-28 00:41 -27.27610 152.34315 11280 ft 393 kts 57°
2026-04-28 00:41 -27.26044 152.36838 11287 ft 393 kts 57°
2026-04-28 00:41 -27.24558 152.39347 11128 ft 375 kts 62°
2026-04-28 00:42 -27.23573 152.41966 11006 ft 355 kts 74°
2026-04-28 00:42 -27.23049 152.44598 10881 ft 337 kts 79°
2026-04-28 00:42 -27.22594 152.47123 10762 ft 323 kts 79°
2026-04-28 00:42 -27.22152 152.49552 10629 ft 311 kts 79°
2026-04-28 00:43 -27.21728 152.51877 10453 ft 296 kts 79°
2026-04-28 00:43 -27.21320 152.54109 10034 ft 287 kts 79°
2026-04-28 00:43 -27.20924 152.56277 9963 ft 283 kts 79°
2026-04-28 00:43 -27.20526 152.58469 9578 ft 289 kts 79°
2026-04-28 00:44 -27.20261 152.59924 9437 ft 284 kts 79°
2026-04-28 00:44 -27.19737 152.62799 9053 ft 279 kts 78°
2026-04-28 00:44 -27.19481 152.64203 8887 ft 276 kts 79°
2026-04-28 00:44 -27.19096 152.66298 8728 ft 271 kts 79°
2026-04-28 00:45 -27.18716 152.68350 8600 ft 268 kts 79°
2026-04-28 00:45 -27.18335 152.70414 8486 ft 271 kts 80°
2026-04-28 00:45 -27.17955 152.72471 8365 ft 267 kts 79°
2026-04-28 00:45 -27.17456 152.75170 8202 ft 267 kts 79°
2026-04-28 00:46 -27.17200 152.76554 8124 ft 267 kts 79°
2026-04-28 00:46 -27.16823 152.78588 7993 ft 264 kts 79°
2026-04-28 00:46 -27.16448 152.80610 7883 ft 264 kts 79°
2026-04-28 00:46 -27.16074 152.82634 7753 ft 264 kts 79°
2026-04-28 00:47 -27.15701 152.84654 7641 ft 264 kts 79°
2026-04-28 00:47 -27.15328 152.86669 7521 ft 264 kts 79°
2026-04-28 00:47 -27.14953 152.88683 7410 ft 263 kts 79°
2026-04-28 00:47 -27.14578 152.90691 7283 ft 262 kts 79°
2026-04-28 00:48 -27.14203 152.92696 7165 ft 262 kts 79°
2026-04-28 00:48 -27.13836 152.94668 7048 ft 261 kts 79°
2026-04-28 00:48 -27.13460 152.96686 6899 ft 260 kts 79°
2026-04-28 00:48 -27.13094 152.98641 6718 ft 258 kts 79°
2026-04-28 00:49 -27.12727 153.00604 6542 ft 256 kts 79°
2026-04-28 00:49 -27.12362 153.02563 6353 ft 256 kts 79°
2026-04-28 00:49 -27.11997 153.04513 6181 ft 255 kts 79°
2026-04-28 00:49 -27.11630 153.06461 6008 ft 255 kts 80°
2026-04-28 00:50 -27.11263 153.08405 5837 ft 254 kts 80°
2026-04-28 00:50 -27.10895 153.10353 5667 ft 255 kts 80°
2026-04-28 00:50 -27.10629 153.12311 5496 ft 253 kts 89°
2026-04-28 00:50 -27.10672 153.14274 5324 ft 249 kts 94°
2026-04-28 00:51 -27.10729 153.16188 5196 ft 241 kts 94°
2026-04-28 00:51 -27.10784 153.18040 5013 ft 235 kts 93°
2026-04-28 00:51 -27.10983 153.19804 4940 ft 221 kts 106°
2026-04-28 00:51 -27.11391 153.21421 4861 ft 210 kts 106°
2026-04-28 00:52 -27.11857 153.22947 4750 ft 205 kts 119°
2026-04-28 00:52 -27.12769 153.24163 4613 ft 206 kts 141°
2026-04-28 00:52 -27.14054 153.24886 4493 ft 209 kts 159°
2026-04-28 00:52 -27.15461 153.25295 4351 ft 211 kts 172°
2026-04-28 00:53 -27.16926 153.25102 4219 ft 217 kts 195°
2026-04-28 00:53 -27.18295 153.24366 4104 ft 219 kts 202°
2026-04-28 00:53 -27.19656 153.23590 3875 ft 220 kts 202°
2026-04-28 00:53 -27.21025 153.22811 3589 ft 220 kts 202°
2026-04-28 00:54 -27.22392 153.22032 3310 ft 220 kts 202°
2026-04-28 00:54 -27.23759 153.21253 3022 ft 220 kts 202°
2026-04-28 00:54 -27.25125 153.20475 2738 ft 220 kts 202°
2026-04-28 00:54 -27.26484 153.19700 2434 ft 218 kts 202°
2026-04-28 00:55 -27.27799 153.18949 2158 ft 210 kts 202°
2026-04-28 00:55 -27.29061 153.18227 1878 ft 196 kts 202°
2026-04-28 00:55 -27.30203 153.17573 1650 ft 174 kts 201°
2026-04-28 00:55 -27.31240 153.16982 1417 ft 159 kts 201°
2026-04-28 00:56 -27.32186 153.16442 1202 ft 148 kts 201°
2026-04-28 00:56 -27.33098 153.15924 1018 ft 145 kts 201°
2026-04-28 00:56 -27.33980 153.15415 861 ft 140 kts 199°
2026-04-28 00:56 -27.34847 153.14930 675 ft 140 kts 202°
2026-04-28 00:57 -27.35709 153.14435 430 ft 141 kts 203°
2026-04-28 00:57 -27.36576 153.13938 262 ft 139 kts 204°
2026-04-28 00:57 -27.37439 153.13446 84 ft 138 kts 204°
2026-04-28 00:57 -27.38248 153.12982 19 ft 114 kts 207°
2026-04-28 00:58 -27.38805 153.12666 19 ft 65 kts 207°
2026-04-28 00:58 -27.39088 153.12503 16 ft 39 kts 206°
2026-04-28 00:58 -27.39349 153.12355 19 ft 45 kts 207°
2026-04-28 00:58 -27.39550 153.12236 17 ft 18 kts 216°
2026-04-28 00:59 -27.39583 153.12135 17 ft 11 kts 282°
2026-04-28 00:59 -27.39560 153.12077 19 ft 8 kts 297°
2026-04-28 00:59 -27.39530 153.12011 18 ft 11 kts 297°
2026-04-28 00:59 -27.39486 153.11936 18 ft 13 kts 326°
2026-04-28 01:00 -27.39400 153.11959 20 ft 14 kts 29°
2026-04-28 01:00 -27.39306 153.12014 19 ft 16 kts 26°
2026-04-28 01:00 -27.39197 153.12077 18 ft 19 kts 27°
2026-04-28 01:00 -27.39098 153.12132 18 ft 12 kts 19°
2026-04-28 01:01 -27.39029 153.12080 18 ft 14 kts 297°
2026-04-28 01:01 -27.38987 153.11999 18 ft 9 kts 308°
2026-04-28 01:01 -27.38936 153.11945 18 ft 11 kts 330°
2026-04-28 01:01 -27.38875 153.11930 18 ft 5 kts